Weather History for West Palm Beach, FL

Change the Weather History Date:

Friday, December 20, 2013

  Actual Average Record
Temperature  
Mean Temperature 77 °F 67 °F  
Max Temperature 82 °F 76 °F 88 °F (1948)
Min Temperature 71 °F 59 °F 36 °F (1981)
Degree Days  
Heating Degree Days 0 2  
Month to date heating degree days 0 30  
Since 1 July heating degree days 4 42  
Cooling Degree Days 12 5  
Month to date cooling degree days 168 109  
Year to date cooling degree days 4369 3975  
Growing Degree Days 26 (Base 50)    
Moisture  
Dew Point 64 °F    
Average Humidity 64    
Maximum Humidity 69    
Minimum Humidity 58    
Precipitation  
Precipitation 0.00 in 0.11 in 1.32 in (1994)
Month to date precipitation 4.18 2.15  
Year to date precipitation 64.82 61.10  
Snow  
Snow 0.00 in - - ()
Month to date snowfall 0.0  
Since 1 July snowfall 0.0  
Snow Depth 0.00 in    
Sea Level Pressure  
Sea Level Pressure 30.16 in    
Wind  
Wind Speed 12 mph (ESE)    
Max Wind Speed 18 mph    
Max Gust Speed 24 mph    
Visibility 10 miles    
Events      
T = Trace of Precipitation, MM = Missing Value Source: NWS Daily Summary

Daily Weather History Graph

Daily Weather History Graph

Search for Another Location

Airport:

Trip Planner

Search our weather history database for the weather conditions in past years. The results will help you decide how hot, cold, wet, or windy it might be!

Date:

Astronomy

Dec. 20, 2013 Rise Set
Actual Time 7:04 AM EST 5:32 PM EST
Civil Twilight 6:38 AM EST 5:57 PM EST
Nautical Twilight 6:09 AM EST 6:26 PM EST
Astronomical Twilight 5:41 AM EST 6:54 PM EST
Moon 8:35 PM EST (12/20) 9:10 AM EST (12/20)
Length of Visible Light 11h 18m
Length of Day
10h 27m
Waning Gibbous, 90% of the Moon is Illuminated
Dec 20
Waning Gibbous
Dec 25
Last Quarter
Jan 1
New
Jan 7
First Quarter
Jan 15
Full

Hourly Weather History & Observations

Time (EST) Temp. Heat Index Dew Point Humidity Pressure Visibility Wind Dir Wind Speed Gust Speed Precip Events Conditions
12:53 AM 73.0 °F - 61.0 °F 66% 30.16 in 10.0 mi East 10.4 mph - N/A   Partly Cloudy
1:53 AM 72.0 °F - 59.0 °F 64% 30.15 in 10.0 mi ESE 8.1 mph - N/A   Partly Cloudy
2:53 AM 73.0 °F - 59.0 °F 61% 30.15 in 10.0 mi East 8.1 mph - N/A   Partly Cloudy
3:53 AM 73.0 °F - 61.0 °F 66% 30.14 in 10.0 mi East 10.4 mph - N/A   Partly Cloudy
4:53 AM 73.0 °F - 60.1 °F 64% 30.14 in 10.0 mi East 10.4 mph - N/A   Partly Cloudy
5:53 AM 73.9 °F - 62.1 °F 66% 30.15 in 10.0 mi East 12.7 mph - N/A   Partly Cloudy
6:53 AM 73.9 °F - 63.0 °F 68% 30.17 in 10.0 mi East 11.5 mph - N/A   Scattered Clouds
7:53 AM 75.0 °F - 63.0 °F 66% 30.17 in 10.0 mi ESE 15.0 mph - N/A   Scattered Clouds
8:53 AM 78.1 °F - 64.0 °F 62% 30.18 in 10.0 mi ESE 13.8 mph - N/A   Scattered Clouds
9:53 AM 80.1 °F 81.9 °F 64.9 °F 60% 30.20 in 10.0 mi ESE 18.4 mph - N/A   Scattered Clouds
10:53 AM 81.0 °F 82.7 °F 64.9 °F 58% 30.20 in 10.0 mi ESE 13.8 mph 21.9 mph N/A   Mostly Cloudy
11:53 AM 81.0 °F 82.7 °F 64.9 °F 58% 30.18 in 10.0 mi ESE 18.4 mph 24.2 mph N/A   Mostly Cloudy
12:53 PM 80.1 °F 81.9 °F 64.9 °F 60% 30.16 in 10.0 mi ESE 15.0 mph - N/A   Mostly Cloudy
1:12 PM 80.6 °F 82.3 °F 64.4 °F 58% 30.15 in 10.0 mi ESE 12.7 mph - N/A   Mostly Cloudy
1:53 PM 81.0 °F 83.0 °F 66.0 °F 60% 30.13 in 10.0 mi East 12.7 mph - N/A   Mostly Cloudy
2:20 PM 82.4 °F 84.6 °F 66.2 °F 58% 30.13 in 10.0 mi ESE 17.3 mph - N/A   Mostly Cloudy
2:53 PM 81.0 °F 83.0 °F 66.0 °F 60% 30.12 in 10.0 mi ESE 15.0 mph - N/A   Scattered Clouds
3:53 PM 80.1 °F 81.7 °F 64.0 °F 58% 30.11 in 10.0 mi ESE 13.8 mph - N/A   Scattered Clouds
4:53 PM 79.0 °F - 64.9 °F 62% 30.13 in 10.0 mi ESE 10.4 mph - N/A   Scattered Clouds
5:53 PM 78.1 °F - 63.0 °F 60% 30.14 in 10.0 mi East 10.4 mph - N/A   Partly Cloudy
6:53 PM 78.1 °F - 64.9 °F 64% 30.14 in 10.0 mi ESE 11.5 mph - N/A   Partly Cloudy
7:53 PM 77.0 °F - 66.0 °F 69% 30.16 in 10.0 mi East 10.4 mph - N/A   Partly Cloudy
8:53 PM 78.1 °F - 66.0 °F 66% 30.17 in 10.0 mi East 11.5 mph - N/A   Scattered Clouds
9:53 PM 77.0 °F - 66.9 °F 71% 30.17 in 10.0 mi East 10.4 mph - N/A   Scattered Clouds
10:53 PM 77.0 °F - 66.9 °F 71% 30.17 in 10.0 mi East 10.4 mph - N/A   Partly Cloudy
11:53 PM 77.0 °F - 69.1 °F 76% 30.15 in 10.0 mi ESE 16.1 mph - N/A   Partly Cloudy